When you browse on this site, cookies collect data to enhance your experience and personalize the content and advertising you see.
Visit our Privacy Policy to learn more. By continuing to use the site, you agree to this use of cookies and data.
  • In Romania
  • List of Countries
  • For 7 days
  • Water Temperature
  • Satellite Maps
  • Weather Map
  • Weather Widgets
  • user-avatar
    Login

    Hourly Weather Barra

    Today, 19 July, Friday

    Time Temperature Precipitation Wind Pressure Humidity
    00:00 +13°C° 0 mm 2 mps 752 mmHg 75%
    01:00 +13°C° 0 mm 2 mps 752 mmHg 75%
    02:00 +13°C° 0 mm 2 mps 752 mmHg 75%
    03:00 +13°C° 0 mm 2 mps 752 mmHg 75%
    04:00 +13°C° 0 mm 2 mps 752 mmHg 75%
    05:00 +13°C° 0 mm 2 mps 752 mmHg 76%
    06:00 +13°C° 0 mm 2 mps 752 mmHg 78%
    07:00 +12°C° 0 mm 2 mps 752 mmHg 79%
    08:00 +15°C° 0 mm 2 mps 752 mmHg 71%
    09:00 +18°C° 0 mm 2 mps 753 mmHg 62%
    10:00 +20°C° 0 mm 3 mps 753 mmHg 53%
    11:00 +21°C° 0 mm 3 mps 752 mmHg 50%
    12:00 +21°C° 0 mm 3 mps 752 mmHg 47%
    13:00 +22°C° 0 mm 4 mps 751 mmHg 44%
    14:00 +21°C° 0 mm 4 mps 751 mmHg 45%
    15:00 +21°C° 0 mm 3 mps 751 mmHg 46%
    16:00 +20°C° 0 mm 3 mps 750 mmHg 48%
    17:00 +18°C° 0 mm 2 mps 751 mmHg 54%
    18:00 +16°C° 0 mm 2 mps 751 mmHg 61%
    19:00 +14°C° 0 mm 1 mps 751 mmHg 68%
    20:00 +14°C° 0 mm 1 mps 752 mmHg 69%
    21:00 +14°C° 0 mm 2 mps 752 mmHg 71%
    22:00 +13°C° 0 mm 2 mps 752 mmHg 72%
    23:00 +13°C° 0 mm 2 mps 752 mmHg 72%

    Tomorrow, 20 July, Saturday

    Time Temperature Precipitation Wind Pressure Humidity
    00:00 +13°C° 0 mm 2 mps 752 mmHg 72%
    01:00 +13°C° 0 mm 2 mps 752 mmHg 73%
    02:00 +13°C° 0 mm 2 mps 752 mmHg 74%
    03:00 +13°C° 0 mm 2 mps 752 mmHg 75%
    04:00 +12°C° 0 mm 2 mps 752 mmHg 76%
    05:00 +12°C° 0 mm 2 mps 752 mmHg 78%
    06:00 +12°C° 0 mm 2 mps 752 mmHg 80%
    07:00 +12°C° 0 mm 2 mps 752 mmHg 82%
    08:00 +14°C° 0 mm 2 mps 752 mmHg 78%
    09:00 +16°C° 0 mm 2 mps 753 mmHg 75%
    10:00 +18°C° 0 mm 3 mps 753 mmHg 71%
    11:00 +19°C° 0 mm 3 mps 752 mmHg 68%
    12:00 +20°C° 0 mm 3 mps 752 mmHg 66%
    13:00 +21°C° 0 mm 3 mps 751 mmHg 63%
    14:00 +21°C° 0 mm 3 mps 751 mmHg 63%
    15:00 +20°C° 0 mm 3 mps 750 mmHg 63%
    16:00 +20°C° 0 mm 3 mps 750 mmHg 63%
    17:00 +19°C° 0 mm 2 mps 750 mmHg 71%
    18:00 +17°C° 0 mm 2 mps 751 mmHg 80%
    19:00 +15°C° 0 mm 2 mps 751 mmHg 88%
    20:00 +15°C° 0 mm 2 mps 751 mmHg 89%
    21:00 +15°C° 0 mm 2 mps 752 mmHg 90%
    22:00 +15°C° 0 mm 2 mps 752 mmHg 91%
    23:00 +14°C° 0 mm 2 mps 751 mmHg 92%

    Day after tomorrow, 21 July, Sunday

    Time Temperature Precipitation Wind Pressure Humidity
    00:00 +14°C° 0 mm 2 mps 751 mmHg 92%
    01:00 +14°C° 0 mm 2 mps 751 mmHg 92%
    02:00 +14°C° 0 mm 2 mps 751 mmHg 92%
    03:00 +14°C° 0 mm 2 mps 750 mmHg 92%
    04:00 +14°C° 0 mm 2 mps 750 mmHg 92%
    05:00 +14°C° 0 mm 2 mps 750 mmHg 93%
    06:00 +14°C° 0 mm 2 mps 751 mmHg 93%
    07:00 +14°C° 0 mm 2 mps 751 mmHg 94%
    08:00 +17°C° 0 mm 2 mps 751 mmHg 84%
    09:00 +19°C° 0 mm 2 mps 751 mmHg 75%
    10:00 +23°C° 0 mm 2 mps 751 mmHg 66%
    11:00 +23°C° 0 mm 2 mps 750 mmHg 63%
    12:00 +24°C° 0 mm 3 mps 750 mmHg 59%
    13:00 +25°C° 0 mm 3 mps 749 mmHg 56%
    14:00 +24°C° 0 mm 3 mps 749 mmHg 59%
    15:00 +24°C° 0 mm 3 mps 748 mmHg 62%
    16:00 +22°C° 0 mm 3 mps 748 mmHg 66%
    17:00 +20°C° 0 mm 2 mps 748 mmHg 74%
    18:00 +19°C° 0 mm 2 mps 749 mmHg 82%
    19:00 +18°C° 0 mm 1 mps 749 mmHg 90%
    20:00 +18°C° 0 mm 1 mps 749 mmHg 91%
    21:00 +16°C° 0 mm 2 mps 750 mmHg 92%
    22:00 +16°C° 0 mm 2 mps 750 mmHg 93%
    23:00 +16°C° 0 mm 2 mps 750 mmHg 93%

    22 July, Monday

    Time Temperature Precipitation Wind Pressure Humidity
    00:00 +16°C° 0 mm 2 mps 750 mmHg 93%
    01:00 +15°C° 0 mm 2 mps 749 mmHg 94%
    02:00 +15°C° 0 mm 2 mps 749 mmHg 93%
    03:00 +15°C° 0 mm 2 mps 749 mmHg 93%
    04:00 +15°C° 0 mm 2 mps 749 mmHg 93%
    05:00 +15°C° 0 mm 2 mps 749 mmHg 93%
    06:00 +15°C° 0 mm 2 mps 750 mmHg 93%
    07:00 +15°C° 0 mm 2 mps 750 mmHg 93%
    08:00 +17°C° 0 mm 2 mps 750 mmHg 85%
    09:00 +20°C° 0 mm 2 mps 750 mmHg 78%
    10:00 +23°C° 0 mm 2 mps 751 mmHg 70%
    11:00 +24°C° 0 mm 3 mps 750 mmHg 67%
    12:00 +25°C° 0 mm 3 mps 749 mmHg 65%
    13:00 +25°C° 0 mm 3 mps 749 mmHg 62%
    14:00 +25°C° 0 mm 3 mps 749 mmHg 64%
    15:00 +25°C° 0 mm 3 mps 748 mmHg 66%
    16:00 +24°C° 0 mm 3 mps 748 mmHg 68%
    17:00 +22°C° 0 mm 3 mps 748 mmHg 77%
    18:00 +20°C° 0 mm 2 mps 749 mmHg 85%
    19:00 +18°C° 0 mm 2 mps 749 mmHg 94%
    20:00 +18°C° 0 mm 2 mps 750 mmHg 94%
    21:00 +18°C° 0 mm 2 mps 750 mmHg 95%
    22:00 +18°C° 0 mm 2 mps 750 mmHg 96%
    23:00 +18°C° 0.1 mm 2 mps 750 mmHg 96%

    23 July, Tuesday

    Time Temperature Precipitation Wind Pressure Humidity
    00:00 +18°C° 0.1 mm 2 mps 750 mmHg 96%
    01:00 +18°C° 0.1 mm 2 mps 750 mmHg 96%
    02:00 +18°C° 0.1 mm 2 mps 750 mmHg 96%
    03:00 +18°C° 0.1 mm 2 mps 750 mmHg 95%
    04:00 +19°C° 0.1 mm 2 mps 750 mmHg 95%
    05:00 +19°C° 0.2 mm 2 mps 750 mmHg 95%
    06:00 +19°C° 0.2 mm 2 mps 750 mmHg 94%
    07:00 +19°C° 0.2 mm 3 mps 751 mmHg 94%
    08:00 +20°C° 0.2 mm 3 mps 751 mmHg 90%
    09:00 +21°C° 0.2 mm 3 mps 751 mmHg 86%
    10:00 +22°C° 0.2 mm 4 mps 752 mmHg 82%
    11:00 +23°C° 0.1 mm 4 mps 751 mmHg 77%
    12:00 +25°C° 0.1 mm 4 mps 751 mmHg 73%
    13:00 +25°C° 0.1 mm 4 mps 750 mmHg 69%
    14:00 +25°C° 0.1 mm 4 mps 750 mmHg 71%
    15:00 +25°C° 0.1 mm 4 mps 749 mmHg 73%
    16:00 +25°C° 0.1 mm 4 mps 749 mmHg 75%
    17:00 +22°C° 0.1 mm 3 mps 750 mmHg 81%
    18:00 +21°C° 0.1 mm 3 mps 750 mmHg 88%
    19:00 +19°C° 0.1 mm 3 mps 751 mmHg 95%
    20:00 +19°C° 0.1 mm 3 mps 751 mmHg 95%
    21:00 +19°C° 0.1 mm 3 mps 751 mmHg 95%
    22:00 +19°C° 0.1 mm 3 mps 752 mmHg 96%
    23:00 +19°C° 0.4 mm 3 mps 752 mmHg 96%

    24 July, Wednesday

    Time Temperature Precipitation Wind Pressure Humidity
    00:00 +19°C° 0.4 mm 3 mps 752 mmHg 95%
    01:00 +19°C° 0.4 mm 3 mps 752 mmHg 95%
    02:00 +19°C° 0.6 mm 3 mps 751 mmHg 95%
    03:00 +19°C° 0.6 mm 3 mps 751 mmHg 95%
    04:00 +20°C° 0.6 mm 3 mps 751 mmHg 95%
    05:00 +20°C° 0.6 mm 4 mps 751 mmHg 95%
    06:00 +20°C° 0.6 mm 4 mps 752 mmHg 95%
    07:00 +19°C° 0.6 mm 4 mps 752 mmHg 95%
    08:00 +20°C° 0.6 mm 4 mps 752 mmHg 93%
    09:00 +20°C° 0.6 mm 4 mps 753 mmHg 91%
    10:00 +21°C° 0.6 mm 4 mps 753 mmHg 89%
    11:00 +21°C° 0.6 mm 4 mps 752 mmHg 88%
    12:00 +21°C° 0.6 mm 4 mps 752 mmHg 88%
    13:00 +21°C° 0.6 mm 4 mps 751 mmHg 88%
    14:00 +21°C° 0.5 mm 4 mps 751 mmHg 88%
    15:00 +21°C° 0.5 mm 4 mps 751 mmHg 88%
    16:00 +21°C° 0.5 mm 4 mps 751 mmHg 87%
    17:00 +20°C° 0.3 mm 4 mps 751 mmHg 89%
    18:00 +20°C° 0.3 mm 4 mps 752 mmHg 90%
    19:00 +19°C° 0.3 mm 4 mps 752 mmHg 91%
    20:00 +19°C° 0.3 mm 4 mps 753 mmHg 91%
    21:00 +19°C° 0.3 mm 4 mps 753 mmHg 91%
    22:00 +19°C° 0.3 mm 4 mps 753 mmHg 91%
    23:00 +19°C° 0.4 mm 4 mps 753 mmHg 91%
    Show more